Time,TemperatureF,DewpointF,PressureIn,WindDirection,WindDirectionDegrees,WindSpeedMPH,WindSpeedGustMPH,Humidity,HourlyPrecipIn,Conditions,Clouds,dailyrainin,SoftwareType,DateUTC
2013-01-11 00:24:00,47.2,46.9,29.78,SSE,150,0.0,5.0,99,0.01,,---,0.00,VWS V12.07,2013-01-11 06:24:00,
2013-01-11 00:44:00,46.3,45.8,29.80,SSW,213,0.0,3.0,98,0.00,,---,0.00,VWS V12.07,2013-01-11 06:44:00,
2013-01-11 01:23:00,47.0,46.7,29.81,SW,236,0.0,6.0,99,0.00,,---,0.00,VWS V12.07,2013-01-11 07:23:00,
2013-01-11 02:12:00,46.7,46.4,29.81,WSW,239,2.0,6.0,99,0.00,,---,0.00,VWS V12.07,2013-01-11 08:12:00,
2013-01-11 02:23:00,46.3,46.0,29.81,SSW,210,4.0,6.0,99,0.00,,---,0.00,VWS V12.07,2013-01-11 08:23:00,
2013-01-11 02:43:00,45.9,45.6,29.83,SW,226,0.0,9.0,99,0.00,,---,0.00,VWS V12.07,2013-01-11 08:43:00,
2013-01-11 02:53:00,45.8,45.5,29.83,NW,308,0.0,9.0,99,0.00,,---,0.00,VWS V12.07,2013-01-11 08:53:00,
2013-01-11 03:13:00,45.5,45.2,29.83,SE,132,0.0,6.0,99,0.00,,---,0.00,VWS V12.07,2013-01-11 09:13:00,
2013-01-11 03:23:00,45.6,45.3,29.83,SSW,212,2.0,6.0,99,0.00,,---,0.00,VWS V12.07,2013-01-11 09:23:00,
2013-01-11 03:33:00,45.7,45.4,29.83,SSW,212,2.0,4.0,99,0.00,,---,0.00,VWS V12.07,2013-01-11 09:33:00,
2013-01-11 03:53:00,45.9,45.6,29.82,West,259,2.0,8.0,99,0.00,,---,0.00,VWS V12.07,2013-01-11 09:53:00,
2013-01-11 04:13:00,46.0,45.7,29.81,WSW,248,0.0,4.0,99,0.00,,---,0.00,VWS V12.07,2013-01-11 10:13:00,
2013-01-11 04:23:00,46.2,45.9,29.81,WSW,257,0.0,4.0,99,0.00,,---,0.00,VWS V12.07,2013-01-11 10:23:00,
2013-01-11 04:33:00,46.3,46.0,29.81,WNW,288,0.0,3.0,99,0.00,,---,0.00,VWS V12.07,2013-01-11 10:33:00,
2013-01-11 04:43:00,46.7,46.4,29.81,SW,225,0.0,5.0,99,0.00,,---,0.00,VWS V12.07,2013-01-11 10:43:00,
2013-01-11 04:53:00,46.5,46.2,29.81,SW,229,0.0,5.0,99,0.00,,---,0.00,VWS V12.07,2013-01-11 10:53:00,
2013-01-11 05:13:00,46.6,46.3,29.80,SSW,212,0.0,3.0,99,0.00,,---,0.00,VWS V12.07,2013-01-11 11:13:00,
2013-01-11 05:23:00,46.6,46.3,29.80,South,183,0.0,3.0,99,0.00,,---,0.00,VWS V12.07,2013-01-11 11:23:00,
2013-01-11 05:43:00,46.9,46.6,29.82,SSW,201,2.0,10.0,99,0.00,,---,0.00,VWS V12.07,2013-01-11 11:43:00,
2013-01-11 05:53:00,47.0,46.7,29.82,SW,226,2.0,10.0,99,0.00,,---,0.00,VWS V12.07,2013-01-11 11:53:00,
2013-01-11 06:13:00,47.4,47.1,29.83,SSW,205,1.0,9.0,99,0.00,,---,0.00,VWS V12.07,2013-01-11 12:13:00,
2013-01-11 06:43:00,47.7,47.4,29.84,SSE,150,2.0,6.0,99,0.00,,---,0.00,VWS V12.07,2013-01-11 12:43:00,
2013-01-11 06:53:00,47.7,47.4,29.84,WSW,249,0.0,6.0,99,0.00,,---,0.00,VWS V12.07,2013-01-11 12:53:00,
2013-01-11 07:43:00,47.1,46.8,29.83,South,187,2.0,5.0,99,0.00,,---,0.00,VWS V12.07,2013-01-11 13:43:00,
2013-01-11 08:13:00,47.2,46.9,29.85,WSW,243,3.0,5.0,99,0.00,,---,0.00,VWS V12.07,2013-01-11 14:13:00,
2013-01-11 08:23:00,47.5,47.2,29.84,ESE,110,0.0,8.0,99,0.00,,---,0.00,VWS V12.07,2013-01-11 14:23:00,
2013-01-11 08:43:00,48.1,47.8,29.84,SSW,210,6.0,7.0,99,0.00,,---,0.00,VWS V12.07,2013-01-11 14:43:00,
2013-01-11 08:53:00,48.3,48.0,29.83,WSW,245,0.0,7.0,99,0.00,,---,0.00,VWS V12.07,2013-01-11 14:53:00,
2013-01-11 09:13:00,49.1,48.8,29.83,WSW,242,3.0,7.0,99,0.00,,---,0.00,VWS V12.07,2013-01-11 15:13:00,
2013-01-11 09:33:00,49.4,49.1,29.83,East,96,5.0,7.0,99,0.00,,---,0.00,VWS V12.07,2013-01-11 15:33:00,
2013-01-11 09:43:00,49.6,49.3,29.83,SW,235,2.0,11.0,99,0.00,,---,0.00,VWS V12.07,2013-01-11 15:43:00,
2013-01-11 10:03:00,50.1,49.8,29.82,SSW,201,2.0,9.0,99,0.00,,---,0.00,VWS V12.07,2013-01-11 16:03:00,
2013-01-11 10:23:00,50.6,50.3,29.82,East,84,3.0,12.0,99,0.00,,---,0.00,VWS V12.07,2013-01-11 16:23:00,
2013-01-11 10:53:00,53.2,51.8,29.81,South,174,6.0,12.0,95,0.00,,---,0.00,VWS V12.07,2013-01-11 16:53:00,
2013-01-11 11:13:00,54.8,51.6,29.80,SSE,148,4.0,12.0,89,0.00,,---,0.00,VWS V12.07,2013-01-11 17:13:00,
2013-01-11 11:23:00,55.1,51.3,29.80,SSW,207,6.0,14.0,87,0.00,,---,0.00,VWS V12.07,2013-01-11 17:23:00,
2013-01-11 11:43:00,56.6,51.2,29.79,SSE,148,3.0,16.0,82,0.00,,---,0.00,VWS V12.07,2013-01-11 17:43:00,
2013-01-11 13:16:00,59.0,51.1,29.74,SSE,153,4.0,16.0,75,0.00,,---,0.00,VWS V12.07,2013-01-11 19:16:00,
2013-01-11 16:24:00,59.6,48.6,29.71,West,263,2.0,13.0,67,0.00,,---,0.00,VWS V12.07,2013-01-11 22:24:00,
2013-01-11 17:25:00,58.6,48.5,29.72,South,169,6.0,13.0,69,0.00,,---,0.00,VWS V12.07,2013-01-11 23:25:00,
2013-01-11 17:44:00,58.3,48.6,29.72,SW,222,3.0,14.0,70,0.00,,---,0.00,VWS V12.07,2013-01-11 23:44:00,
2013-01-11 17:55:00,58.2,48.5,29.72,SE,135,2.0,14.0,70,0.00,,---,0.00,VWS V12.07,2013-01-11 23:55:00,
2013-01-11 18:16:00,58.4,48.7,29.71,South,190,3.0,13.0,70,0.00,,---,0.00,VWS V12.07,2013-01-12 00:16:00,
2013-01-11 18:35:00,58.4,48.3,29.71,SSW,199,4.0,12.0,69,0.00,,---,0.00,VWS V12.07,2013-01-12 00:35:00,
2013-01-11 19:45:00,57.6,48.3,29.73,SW,214,0.0,13.0,71,0.00,,---,0.00,VWS V12.07,2013-01-12 01:45:00,
2013-01-11 20:05:00,57.1,48.2,29.73,South,181,2.0,6.0,72,0.00,,---,0.00,VWS V12.07,2013-01-12 02:05:00,
2013-01-11 20:15:00,56.9,48.3,29.72,SSW,207,0.0,15.0,73,0.00,,---,0.00,VWS V12.07,2013-01-12 02:15:00,
2013-01-11 20:26:00,56.8,48.2,29.72,SE,126,0.0,15.0,73,0.00,,---,0.00,VWS V12.07,2013-01-12 02:26:00,
2013-01-11 21:46:00,56.6,48.4,29.74,South,178,3.0,14.0,74,0.00,,---,0.00,VWS V12.07,2013-01-12 03:46:00,
2013-01-11 21:56:00,56.7,48.5,29.74,South,181,3.0,18.0,74,0.00,,---,0.00,VWS V12.07,2013-01-12 03:56:00,
2013-01-11 22:35:00,56.5,48.3,29.75,WSW,240,0.0,6.0,74,0.00,,---,0.00,VWS V12.07,2013-01-12 04:35:00,
2013-01-11 23:59:00,56.4,47.9,29.76,SW,222,3.0,10.0,73,0.00,,---,0.00,VWS V12.07,2013-01-12 05:59:00,